Regional Weather Roundup
Issued by NWS

Home | Current Version | Previous Version | Text Only | Print | Product List | Glossary On
Versions: 1 2 3 4 5 6 7 8 9 10 11 12 13 14 15 16 17 18 19 20 21 22 23 24 25 26 27 28 29 30 31 32 33 34 35 36 37 38 39 40 41 42 43 44 45 46 47 48 49 50
000
ASUS43 KBIS 241710
RWRND

NORTH DAKOTA REGIONAL WEATHER ROUNDUP
NATIONAL WEATHER SERVICE BISMARCK ND
1200 PM CDT TUE MAY 24 2016

NOTE: "FAIR" INDICATES FEW OR NO CLOUDS BELOW 12,000 FEET WITH NO
SIGNIFICANT WEATHER AND/OR OBSTRUCTIONS TO VISIBILITY.


NDZ001>003-009>011-017-241800-
NORTHWEST NORTH DAKOTA

CITY           SKY/WX    TMP DP  RH WIND       PRES   REMARKS
WILLISTON      CLOUDY    63  41  44 SW12      29.88S
MINOT          MOSUNNY   73  40  30 S14G24    29.87R
MINOT AFB      MOSUNNY   70  42  36 W12       29.86R
$$

NDZ018>021-031>035-040>046-241800-
SOUTHWEST NORTH DAKOTA

CITY           SKY/WX    TMP DP  RH WIND       PRES   REMARKS
BISMARCK       MOSUNNY   72  44  36 W3        29.90R
DICKINSON      PTSUNNY   64  38  38 W6        29.91R
GARRISON         N/A     65  43  44 SW8       29.90R
HETTINGER ARPT SUNNY     66  40  38 MISG      29.93S
$$

NDZ004>008-012>016-024-026-027-054-241800-
NORTHEAST NORTH DAKOTA

CITY           SKY/WX    TMP DP  RH WIND       PRES   REMARKS
GRAND FORKS    MOSUNNY   72  51  47 CALM      29.85R
GRND FRKS AFB  SUNNY     71  53  53 VRB6      29.86R
DEVILS LAKE    SUNNY     70  42  36 SE6       29.89R
$$

NDZ022-023-025-028>030-036>039-047>053-241800-
SOUTHEAST NORTH DAKOTA

CITY           SKY/WX    TMP DP  RH WIND       PRES   REMARKS
FARGO          SUNNY     80  44  27 S9        29.85R
JAMESTOWN      MOSUNNY   71  49  45 VRB3      29.88R
$$




USA.gov is the U.S. government's official web portal to all federal, state and local government web resources and services.